Kezdőlap
METAR-TAF:

METAR-TAF

Repülőterek :

Waseca Municipal Airport

Waseca, Minnesota, Amerikai Egyesült Államok

földrajzi szélesség: 44-04-24N, földrajzi hosszúság: 093-33-11W, magasság: 343 m

Jelenlegi meteorológiai megfigyelések

A jelentés 35 perccel ezelõtt készült, 22:15 UTC
Dél-délkeleti szél 16 kt széllökések: 20 kt
Hőmérséklet 25°C
Páratartalom 69%
Légköri nyomás 1008 hPa
Látótávolság: 16.1 km
Derült ég

METAR: KACQ 122215Z AUTO 16016G20KT 10SM CLR 25/19 A2977 RMK AO2

Idő: 17:50 (22:50 UTC)


TAF: hiányzik

Meteorológiai megfigyelések és előrejelzések több, mint 4000 repülőtéren (METAR és TAF jelentéseket).

A térképen piros és sárga pontok jelzik az elérhető meteorológiai állomásokat.

Mozgassa az egeret a pont fölött, hogy megjelenjen az állomás neve.

Azután kattintson az időjárási megfigyelések és előrejelzések megtekintéséhez.

A térkép megváltoztatása: kattintson a fekete keresztel jelölt zöld gombra ráközelítéshez, a vonallal jelölt zöld gombra távolításhoz, vagy a zöld nyilakra a szomszédos térképek eléréséhez.


METAR-TAF: